Regional Weather Roundup
Issued by NWS

Home | Current Version | Previous Version | Graphics & Text | Print | Product List | Glossary On
Versions: 1 2 3 4 5 6 7 8 9 10 11 12 13 14 15 16 17 18 19 20 21 22 23 24 25 26 27 28 29 30 31 32 33 34 35 36 37 38 39 40 41 42 43 44 45 46 47 48 49 50
917
ASUS44 KJAN 201903
RWRMS

MISSISSIPPI HOURLY WEATHER ROUNDUP
NATIONAL WEATHER SERVICE JACKSON MS
100 PM CST THU NOV 20 2014

NOTE: "FAIR: INDICATES FEW OR NO CLOUDS BELOW 12,000 FEET WITH NO
SIGNIFICANT WEATHER AND/OR OBSTRUCTIONS TO VISIBILITY.

MSZ001>002-007>008-010>013-018>021-025>028-034>036-202000-
NORTHWEST MISSISSIPPI

CITY           SKY/WX    TMP DP  RH WIND       PRES   REMARKS
CLARKSDALE     PTSUNNY   55  34  44 SE6       30.22F
CLEVELAND      CLOUDY    55  46  69 E3        30.21F
GREENWOOD      CLOUDY    58  44  60 CALM      30.21F
GREENVILLE     CLOUDY    56  47  71 NE6       30.20F
GRENADA        CLOUDY    55  39  54 CALM      30.21F
OLIVE BRANCH   MOSUNNY   52  28  40 N5        30.22F
OXFORD         FAIR      55  28  35 NE3       30.22F
TUNICA         CLEAR     54  32  43 CALM      30.22F
$$

MSZ003>006-009-014>017-022>024-029>033-037>039-202000-
NORTHEAST MISSISSIPPI

CITY           SKY/WX    TMP DP  RH WIND       PRES   REMARKS
COLUMBUS AFB   PTSUNNY   58  39  48 N7        30.22F
CORINTH        FAIR      54  25  32 CALM      30.22F
GOLDN TRIANGLE MOSUNNY   63  45  51 CALM      30.22F
STARKVILLE       N/A    N/A N/A N/A MISG        N/A
TUPELO         SUNNY     57  34  41 NE7       30.21F
$$

MSZ040-058-202000-
CENTRAL MISSISSIPPI

CITY           SKY/WX    TMP DP  RH WIND       PRES   REMARKS
JACKSON INTL   PTSUNNY   66  49  54 VRB3      30.18F
JACKSON HAWKNS CLOUDY    65  49  56 CALM      30.19F
MERIDIAN KEY   MOSUNNY   66  45  46 VRB3      30.20F
MERIDIAN NAS   CLOUDY    64  46  52 VRB6      30.21F
RAYMOND        MOCLDY    66  61  82 NW5       30.19F
VICKSBURG      CLOUDY    64  51  62 N6        30.19F
$$

MSZ059>079-202000-
SOUTH MISSISSIPPI

CITY           SKY/WX    TMP DP  RH WIND       PRES   REMARKS
BROOKHAVEN     FAIR      68  46  45 S8        30.21F
HATTIESBURG    MOSUNNY   68  45  43 S8        30.22F
MCCOMB         PTSUNNY   68  44  42 VRB5      30.20F
NATCHEZ        CLOUDY    66  48  52 SW7       30.19F
PINE BELT      MOSUNNY   64  45  48 SW3       30.22F
$$

MSZ080>082-202000-
COASTAL MISSISSIPPI

CITY           SKY/WX    TMP DP  RH WIND       PRES   REMARKS
BAY ST LOUIS   PTSUNNY   68  37  32 S9        30.23F
BILOXI         SUNNY     65  46  50 SW10      30.24F
PASCAGOULA     MOSUNNY   67  43  41 VRB7      30.24F
GULFPORT       SUNNY     64  41  42 S9        30.23F
$$



USA.gov is the U.S. government's official web portal to all federal, state and local government web resources and services.